Weather History for KCNK - January, 2011

Change the Weather History Date:

Saturday, January 29, 2011

  Actual Average Record
Temperature  
Mean Temperature 37 °F 29 °F  
Max Temperature 46 °F 40 °F 70 °F (1911)
Min Temperature 28 °F 19 °F -11 °F (1966)
Degree Days  
Heating Degree Days 28 36  
Month to date heating degree days 1058  
Since 1 July heating degree days 3235  
Cooling Degree Days 0 0  
Month to date cooling degree days 0  
Year to date cooling degree days 0  
Moisture  
Dew Point 29 °F    
Average Humidity 79    
Maximum Humidity 92    
Minimum Humidity 58    
Precipitation  
Precipitation 0.00 in 0.03 in 0.54 in (1983)
Month to date precipitation 0.53  
Year to date precipitation 0.53  
Snow  
Snow 0.00 in 0.20 in 3.00 in (2013)
Month to date snowfall 5.3  
Year to date snowfall 5.3  
Since 1 July snowfall 11.8  
Snow Depth -    
Sea Level Pressure  
Sea Level Pressure 29.99 in    
Wind  
Wind Speed 7 mph (NE)    
Max Wind Speed 20 mph    
Max Gust Speed 24 mph    
Visibility 10 miles    
Events      
T = Trace of Precipitation, MM = Missing Value Source: NWS Daily Summary

Daily Weather History Graph

Daily Weather History Graph

Search for Another Location

Airport or City:

Trip Planner

Search our weather history database for the weather conditions in past years. The results will help you decide how hot, cold, wet, or windy it might be!

Date:

Astronomy

Jan. 29, 2011 Rise Set
Actual Time 7:40 AM CST 5:46 PM CST
Civil Twilight 7:12 AM CST 6:15 PM CST
Nautical Twilight 6:40 AM CST 6:47 PM CST
Astronomical Twilight 6:08 AM CST 7:19 PM CST
Moon 4:19 AM CST (1/29) 1:44 PM CST (1/29)
Length of Visible Light 11h 03m
Length of Day
10h 05m
Waning Crescent, 18% of the Moon is Illuminated
Jan 29
Waning Crescent
Feb 2
New
Feb 11
First Quarter
Feb 18
Full
Feb 24
Last Quarter

Hourly Weather History & Observations

Time (CST) Temp. Windchill Dew Point Humidity Pressure Visibility Wind Dir Wind Speed Gust Speed Precip Events Conditions
12:55 AM 37.9 °F 33.5 °F 28.9 °F 70% 29.95 in 10.0 mi North 5.8 mph - N/A   Clear
1:55 AM 36.0 °F 33.3 °F 28.9 °F 76% 29.94 in 10.0 mi ENE 3.5 mph - N/A   Clear
2:55 AM 35.1 °F - 28.9 °F 78% 29.93 in 10.0 mi Calm Calm - N/A   Clear
3:55 AM 34.0 °F - 28.9 °F 82% 29.92 in 10.0 mi Calm Calm - N/A   Clear
4:55 AM 30.0 °F 25.2 °F 27.0 °F 88% 29.92 in 10.0 mi ENE 4.6 mph - N/A   Clear
5:55 AM 28.0 °F 24.2 °F 25.0 °F 88% 29.94 in 10.0 mi SE 3.5 mph - N/A   Clear
6:55 AM 28.9 °F 23.9 °F 26.1 °F 89% 29.95 in 10.0 mi SE 4.6 mph - N/A   Clear
7:55 AM 28.0 °F 21.7 °F 26.1 °F 92% 29.93 in 10.0 mi ESE 5.8 mph - N/A   Clear
8:55 AM 34.0 °F 31.0 °F 30.9 °F 89% 29.94 in 10.0 mi SE 3.5 mph - N/A   Clear
9:55 AM 36.0 °F 28.5 °F 30.9 °F 82% 29.92 in 10.0 mi SE 10.4 mph - N/A   Clear
10:55 AM 39.0 °F 32.8 °F 32.0 °F 76% 29.94 in 10.0 mi East 9.2 mph - N/A   Clear
11:55 AM 39.9 °F 35.1 °F 30.9 °F 70% 29.93 in 10.0 mi ENE 6.9 mph - N/A   Clear
12:55 PM 41.0 °F 35.2 °F 32.0 °F 70% 29.91 in 10.0 mi NE 9.2 mph - N/A   Clear
1:55 PM 46.0 °F 40.6 °F 32.0 °F 58% 29.90 in 10.0 mi NNE 11.5 mph - N/A   Clear
2:55 PM 45.0 °F 40.1 °F 32.0 °F 60% 29.91 in 10.0 mi ENE 9.2 mph - N/A   Clear
3:55 PM 43.0 °F 36.4 °F 32.0 °F 65% 29.94 in 10.0 mi ENE 12.7 mph - N/A   Clear
4:55 PM 42.1 °F 35.7 °F 30.9 °F 65% 29.98 in 10.0 mi NE 11.5 mph - N/A   Clear
5:55 PM 37.0 °F 29.3 °F 30.0 °F 76% 30.04 in 10.0 mi NNE 11.5 mph - N/A   Clear
6:55 PM 34.0 °F 26.0 °F 30.0 °F 85% 30.08 in 10.0 mi NNE 10.4 mph - N/A   Clear
7:12 PM 33.8 °F 25.8 °F 30.2 °F 87% 30.05 in 10.0 mi NNE 10.4 mph - N/A   Mostly Cloudy
7:55 PM 33.1 °F 21.5 °F 28.9 °F 85% 30.12 in 8.0 mi NNE 19.6 mph 24.2 mph N/A   Overcast
8:14 PM 32.0 °F 20.8 °F 28.4 °F 87% 30.08 in 8.0 mi NNE 17.3 mph 23.0 mph N/A   Overcast
8:55 PM 30.9 °F 19.8 °F 27.0 °F 85% 30.14 in 8.0 mi North 16.1 mph - N/A   Overcast
9:55 PM 30.0 °F 19.1 °F 26.1 °F 85% 30.16 in 7.0 mi NNE 15.0 mph - N/A   Overcast
10:55 PM 30.0 °F 20.0 °F 25.0 °F 82% 30.17 in 6.0 mi NNE 12.7 mph - N/A   Haze
11:55 PM 28.0 °F 15.3 °F 24.1 °F 85% 30.18 in 10.0 mi NNE 18.4 mph 23.0 mph N/A   Overcast